Regional Weather Roundup
Issued by NWS

Home | Current Version | Previous Version | Text Only | Print | Product List | Glossary On
Versions: 1 2 3 4 5 6 7 8 9 10 11 12 13 14 15 16 17 18 19 20 21 22 23 24 25 26 27 28 29 30 31 32 33 34 35 36 37 38 39 40 41 42 43 44 45 46 47 48 49 50
000
ASUS45 KABQ 311301
RWRNM
NEW MEXICO REGIONAL WEATHER ROUNDUP
NATIONAL WEATHER SERVICE ALBUQUERQUE NM
700 AM MDT TUE MAY 31 2016

NOTE: "FAIR" MEANS FEW OR NO CLOUDS BELOW 12,000 FEET AGL WITH NO
       SIGNIFICANT WEATHER OR OBSTRUCTIONS TO VISION.

      THIS PRODUCT IS RELEASED AS TWO VERSIONS.  ONE VERSION NEAR
      THE TOP OF THE HOUR CONTAINING PRELIMINARY DATA FROM ALBUQUERQUE
      AND OTHER STATIONS.  A FINAL VERSION WITH ADDITIONAL DATA IS
      ISSUED ABOUT 10 MINUTES AFTER THE HOUR.

NMZ501-503-504-510>518-311400-
NORTHWEST PLATEAU/NORTHCENTRAL MOUNTAINS

CITY           SKY/WX    TMP DP  RH WIND       PRES   REMARKS
FARMINGTON     FAIR      48  24  39 NE5       30.03R
SANTA FE       FAIR      56  29  35 NE7       30.08R
TAOS           FAIR      46  27  46 N6        30.14R

$$
NMZ402-403-502-505>509-311400-
WESTCENTRAL MOUNTAINS/SOUTHWEST MOUNTAINS

CITY           SKY/WX    TMP DP  RH WIND       PRES   REMARKS
GALLUP         FAIR      45  28  51 CALM      30.09R
GRANTS         FAIR      44  23  43 CALM      30.10S
SILVER CITY      N/A     55  43  62 N9        30.06R

$$
NMZ407-409-411-412-311400-
SOUTHERN DESERTS

CITY           SKY/WX    TMP DP  RH WIND       PRES   REMARKS
LORDSBURG      FAIR      55  50  82 S6        29.97S
DEMING         FAIR      59  52  77 NW6       29.99R
HOLLOMAN AFB   FAIR      62  50  66 SW6       29.98R
ALAMOGORDO     FAIR      59  48  67 CALM      29.99S
T OR C         FAIR      61  51  70 S7        30.00R

$$
NMZ519>523-311400-
CENTRAL VALLEYS/CENTRAL HIGHLANDS

CITY           SKY/WX    TMP DP  RH WIND       PRES   REMARKS
ALBUQUERQUE    FAIR      66  38  35 SE8       30.04R
DOUBLE EAGLE   MOSUNNY   57  43  58 E7        30.06R
CLINES CORNERS FAIR      54  37  52 CALM      30.11S
BELEN          PTSUNNY   60  43  54 SE7       30.02R
SOCORRO        NOT AVBL

$$
NMZ524>526-539-540-311400-
SOUTHCENTRAL MOUNTAINS

CITY           SKY/WX    TMP DP  RH WIND       PRES   REMARKS
RUIDOSO        NOT AVBL

$$
NMZ527>531-311400-
NORTHEAST HIGHLANDS/NORTHEAST PLAINS

CITY           SKY/WX    TMP DP  RH WIND       PRES   REMARKS
LAS VEGAS      FAIR      49  36  61 N10       30.13R
RATON          FAIR      50  39  66 NE8       30.11R
CLAYTON        FAIR      53  48  83 NW7       30.04R

$$
NMZ532>537-311400-
EASTCENTRAL PLAINS

CITY           SKY/WX    TMP DP  RH WIND       PRES   REMARKS
TUCUMCARI      FAIR      63  52  67 CALM      29.97R
CANNON AFB     FAIR      59  55  86 S1        29.97R
CLOVIS AIRPORT FAIR      59  52  77 W7        29.97R

$$
NMZ028-029-538-311400-
SOUTHEAST PLAINS

CITY           SKY/WX    TMP DP  RH WIND       PRES   REMARKS
ROSWELL        FAIR      60  52  74 CALM      29.94R
ARTESIA        FAIR      61  61 100 SE5       29.95S
CARLSBAD       FAIR      62  58  86 N6        29.94R
HOBBS          SUNNY     63  63 100 S12       29.97R


$$



USA.gov is the U.S. government's official web portal to all federal, state and local government web resources and services.